Lexington Weather

Lexington, Massachusetts, USA

70°F
8/17/2022 6:34pm 
  • Lexington Conditions: Overcast
  • Temperature: 69.8°F / 21.0°CColder 0.2°F than last hour.
  • Dew Point: 58.8°FIncreased 0.3°Fsince last hour.
  • Relative Humidity: 68%Increased 1.0% since last hour.
  • Wind: Calm, 10-min avg: Calm, gust: 3 mph
  • Barometer: 29.85 in Steady
  • Visibility: 10 miles
  • Rain Today: 0.00 in
  •   

Regional Weather Roundup
for Boston, MA

        
000
ASUS41 KBOX 131210
RWRBOX

REGIONAL WEATHER ROUNDUP
NATIONAL WEATHER SERVICE BOSTON/NORTON MA
800 AM EDT SAT AUG 13 2022

NOTE:  "FAIR" INDICATES FEW OR NO CLOUDS BELOW 12,000 FEET WITH NO 
SIGNIFICANT WEATHER AND/OR OBSTRUCTIONS TO VISIBILITY.

MAZALL-131300-
EASTERN MASSACHUSETTS
  
CITY           SKY/WX    TMP DP  RH WIND       PRES   REMARKS
BOSTON         PTSUNNY   64  51  62 N10       30.08R                  
6HR MIN TEMP:  63; 6HR MAX TEMP:  67;                                

BEVERLY        SUNNY     62  52  69 N7        30.07R                  
LAWRENCE       SUNNY     63  53  70 CALM      30.11R                  
BEDFORD        SUNNY     61  53  75 NW5       30.08R                  
BLUE HILL      NOT AVBL                                               
NORWOOD        SUNNY     63  53  70 NW5       30.08R                  
MARSHFIELD     SUNNY     64  55  72 VRB6      30.06R                  
PLYMOUTH       SUNNY     63  55  75 NW8       30.07R                  
TAUNTON          N/A    N/A N/A N/A MISG      30.07R                  
NEW BEDFORD    SUNNY     63  55  75 VRB6      30.06R                  
$$

MAZALL-131300-
CAPE COD AND THE ISLANDS
  
CITY           SKY/WX    TMP DP  RH WIND       PRES   REMARKS
FALMOUTH       SUNNY     64  59  82 N9G18     30.06R                  
HYANNIS        SUNNY     67  59  75 N10G22    30.03R                  
CHATHAM        SUNNY     69  60  73 VRB6      30.03R                  
NANTUCKET      PTSUNNY   71  64  78 N12       30.03R                  
MARTHAS VNYRD  SUNNY     67  60  78 N9        30.04R                  
$$
 
MAZALL-131300-
CENTRAL AND WESTERN MASSACHUSETTS
  
CITY           SKY/WX    TMP DP  RH WIND       PRES   REMARKS
WORCESTER      SUNNY     59  50  72 N6        30.10S                  
6HR MIN TEMP:  58; 6HR MAX TEMP:  61;                                

FITCHBURG      SUNNY     61  51  70 CALM      30.11R                  
ORANGE         SUNNY     57  52  83 CALM      30.13S                  
SPRINGFIELD    MOSUNNY   59  52  77 N3        30.09R                  
WESTFIELD      SUNNY     61  52  72 N3        30.12R                  
NORTH ADAMS    CLOUDY    56  53  90 CALM      30.15S                  
PITTSFIELD     CLOUDY    57  51  80 CALM      30.13S                  
$$
 
RIZALL-131300-
RHODE ISLAND
  
CITY           SKY/WX    TMP DP  RH WIND       PRES   REMARKS
PROVIDENCE     MOSUNNY   64  52  64 N7        30.08R                  
6HR MIN TEMP:  63; 6HR MAX TEMP:  68;                                

NEWPORT        SUNNY     63  54  72 N8        30.07R                  
BLOCK ISLAND   SUNNY     63  55  75 N7        30.07R                  
SMITHFIELD     SUNNY     60  53  77 N5        30.09R                  
WESTERLY       SUNNY     63  52  67 N9        30.07R                  
$$
 
CTZALL-131300-
CONNECTICUT
  
CITY           SKY/WX    TMP DP  RH WIND       PRES   REMARKS
BRADLEY INTL   MOSUNNY   62  51  67 N6        30.11R                  
6HR MIN TEMP:  56; 6HR MAX TEMP:  62;                                

HARTFORD       MOSUNNY   64  52  64 N6        30.11R                  
BRIDGEPORT     SUNNY     67  51  56 N13G21    30.09R                  
DANBURY        SUNNY     65  51  60 N6        30.13R                  
GROTON         SUNNY     66  51  58 N14       30.07R                  
NEW HAVEN      SUNNY     68  53  58 N15G22    30.10R                  
CHESTER        NOT AVBL                                               
MERIDEN        SUNNY     65  50  58 N8        30.11R                  
WILLIMANTIC    SUNNY     61  52  72 N7        30.10F                  
OXFORD         SUNNY     62  52  69 N7        30.12S                  
$$

MEZ002-015-021-024-NHZ003-005-008-011-012-014-VTZ005-008-131300-
NORTHERN NEW ENGLAND
  
CITY           SKY/WX    TMP DP  RH WIND       PRES   REMARKS
PORTLAND ME    PTSUNNY   66  53  63 N7        30.08S                  
6HR MIN TEMP:  59; 6HR MAX TEMP:  66;                                

BANGOR ME      PTSUNNY   62  55  77 N3        30.08S                  
CONCORD NH     SUNNY     57  53  86 NW3       30.11R                  
MANCHESTER NH  PTSUNNY   60  52  74 NW6       30.09R                  
NASHUA NH      SUNNY     60  56  86 NW6       30.11R                  
PORTSMOUTH NH  PTSUNNY   61  52  72 NW8       30.06F                  
JAFFREY NH     SUNNY     57  52  83 CALM      30.12S                  
KEENE NH       SUNNY     52  52 100 CALM        N/A                   
BURLINGTON VT  CLOUDY    59  55  87 CALM      30.16R                  
MT. WASHINGTON FOG       39  39 100 N20         N/A  VSB 1/16WCI  30  
$$

NYZ052-076-131300-
EASTERN NEW YORK
  
CITY           SKY/WX    TMP DP  RH WIND       PRES   REMARKS
ALBANY         PTSUNNY   63  52  67 NW7       30.15S                  
6HR MIN TEMP:  60; 6HR MAX TEMP:  63;                                

NEW YORK CITY  MOSUNNY   68  51  54 N13       30.10R                  
6HR MIN TEMP:  66; 6HR MAX TEMP:  71;                                

$$
 
ANZALL-131300-
MARINE OBSERVATIONS
  
STATION/POSITION TIME  TEMP    WIND        PRES    VSBY  WAVE
                       AIR SEA DIR/SP/G                  HT/PER
                 (UTC) (F)     (DEG/KT/KT) (MB)    (MI)  (FT/S)
BOSTON BUOY      NOT AVBL
BUZZARDS BAY     NOT AVBL
NANTUCKET SOUND  NOT AVBL
MASS BAY-STELLWA NOT AVBL
ISLE OF SHOALS   NOT AVBL
S OF BLOCK IS    NOT AVBL
$$

......................KEY.........................
  SKY/WX - SKY CONDITION/PRESENT WEATHER
  TMP    - TEMPERATURE IN FAHRENHEIT
  DWPT   - DEWPOINT IN FAHRENHEIT
  RH     - RELATIVE HUMIDITY IN PERCENT
  WIND   - DIRECTION AND SPEED IN MPH
  PRES   - MEAN SEA LEVEL PRESSURE IN INCHES OF HG
  WCI    - WIND CHILL INDEX
  VSB    - VISIBILITY IN MILES
  HX     - HEAT INDEX
  TC     - TEMPERATURE IN CELSIUS
  VRB    - VARIABLE WIND DIRECTION
  N/A    - NOT AVAILABLE
  
      

Other recent Regional Weather Roundups

Wed Aug 17, 6:10pm

Wed Aug 17, 5:10pm

Wed Aug 17, 4:10pm

Wed Aug 17, 3:10pm

Wed Aug 17, 2:10pm

Wed Aug 17, 1:10pm

Wed Aug 17, 12:10pm

Wed Aug 17, 11:10am

Wed Aug 17, 10:10am

Wed Aug 17, 9:10am

Wed Aug 17, 8:10am

Wed Aug 17, 7:10am

Wed Aug 17, 6:10am

Wed Aug 17, 5:10am

Wed Aug 17, 4:10am

Wed Aug 17, 3:10am

Wed Aug 17, 2:10am

Wed Aug 17, 1:10am

Wed Aug 17, 12:10am

Tue Aug 16, 11:10pm

Tue Aug 16, 10:10pm

Tue Aug 16, 9:10pm

Tue Aug 16, 8:10pm

Tue Aug 16, 7:10pm

Tue Aug 16, 6:10pm

Tue Aug 16, 5:10pm

Tue Aug 16, 4:10pm

Tue Aug 16, 3:10pm

Tue Aug 16, 2:10pm

Tue Aug 16, 1:10pm

Tue Aug 16, 12:10pm

Tue Aug 16, 11:10am

Tue Aug 16, 10:10am

Tue Aug 16, 9:10am

Tue Aug 16, 8:10am

Tue Aug 16, 7:10am

Tue Aug 16, 6:10am

Tue Aug 16, 5:10am

Tue Aug 16, 4:10am

Tue Aug 16, 3:10am

Tue Aug 16, 2:10am

Tue Aug 16, 1:10am

Tue Aug 16, 12:10am

Mon Aug 15, 11:10pm

Mon Aug 15, 10:10pm

Mon Aug 15, 9:10pm

Mon Aug 15, 8:10pm

Mon Aug 15, 7:10pm

Mon Aug 15, 6:10pm

Mon Aug 15, 5:10pm

Mon Aug 15, 4:10pm

Mon Aug 15, 3:10pm

Mon Aug 15, 2:10pm

Mon Aug 15, 1:10pm

Mon Aug 15, 12:10pm

Mon Aug 15, 11:10am

Mon Aug 15, 10:10am

Mon Aug 15, 9:10am

Mon Aug 15, 8:10am

Mon Aug 15, 7:10am

Mon Aug 15, 6:10am

Mon Aug 15, 5:10am

Mon Aug 15, 4:10am

Mon Aug 15, 3:10am

Mon Aug 15, 2:10am

Mon Aug 15, 1:10am

Mon Aug 15, 12:10am

Sun Aug 14, 11:10pm

Sun Aug 14, 10:10pm

Sun Aug 14, 9:10pm

Sun Aug 14, 8:10pm

Sun Aug 14, 7:10pm

Sun Aug 14, 6:10pm

Sun Aug 14, 5:10pm

Sun Aug 14, 4:10pm

Sun Aug 14, 3:10pm

Sun Aug 14, 2:10pm

Sun Aug 14, 1:10pm

Sun Aug 14, 12:10pm

Sun Aug 14, 11:10am

Sun Aug 14, 10:10am

Sun Aug 14, 9:10am

Sun Aug 14, 8:10am

Sun Aug 14, 7:10am

Sun Aug 14, 6:10am

Sun Aug 14, 5:10am

Sun Aug 14, 4:10am

Sun Aug 14, 3:10am

Sun Aug 14, 2:10am

Sun Aug 14, 1:10am

Sun Aug 14, 12:10am

Sat Aug 13, 11:10pm

Sat Aug 13, 10:10pm

Sat Aug 13, 9:10pm

Sat Aug 13, 8:10pm

Sat Aug 13, 7:10pm

Sat Aug 13, 6:10pm

Sat Aug 13, 5:10pm

Sat Aug 13, 4:10pm

Sat Aug 13, 3:10pm

Sat Aug 13, 2:10pm

Sat Aug 13, 1:10pm

Sat Aug 13, 12:10pm

Sat Aug 13, 11:10am

Sat Aug 13, 10:10am

Sat Aug 13, 9:10am

Sat Aug 13, 7:10am

Sat Aug 13, 6:10am

Sat Aug 13, 5:10am

Sat Aug 13, 4:10am

Sat Aug 13, 3:10am

Sat Aug 13, 2:10am

Sat Aug 13, 1:10am

Sat Aug 13, 12:10am

Fri Aug 12, 11:10pm

Fri Aug 12, 10:10pm

Fri Aug 12, 9:10pm

Fri Aug 12, 8:10pm

Fri Aug 12, 7:10pm

Fri Aug 12, 6:10pm

Fri Aug 12, 5:10pm

Fri Aug 12, 4:10pm

Fri Aug 12, 3:10pm

Fri Aug 12, 2:10pm

Fri Aug 12, 1:10pm

Fri Aug 12, 12:10pm

Fri Aug 12, 11:10am

Fri Aug 12, 10:10am

Fri Aug 12, 9:10am

Fri Aug 12, 8:10am

Fri Aug 12, 7:10am

Fri Aug 12, 6:10am

Fri Aug 12, 5:10am

Fri Aug 12, 4:10am

Fri Aug 12, 3:10am

Fri Aug 12, 2:10am

Fri Aug 12, 1:10am

Fri Aug 12, 12:10am

Thu Aug 11, 11:10pm

Thu Aug 11, 10:10pm

Thu Aug 11, 9:10pm

Thu Aug 11, 8:10pm

Thu Aug 11, 7:10pm

Thu Aug 11, 6:10pm

Thu Aug 11, 5:10pm

Thu Aug 11, 4:10pm

Thu Aug 11, 3:10pm

Thu Aug 11, 2:10pm

Thu Aug 11, 1:10pm

Thu Aug 11, 12:10pm

Thu Aug 11, 11:10am

Thu Aug 11, 10:10am

Thu Aug 11, 9:10am

Thu Aug 11, 8:10am

Thu Aug 11, 7:10am

Thu Aug 11, 6:10am

Thu Aug 11, 5:10am

Thu Aug 11, 4:10am

Thu Aug 11, 3:10am

Thu Aug 11, 2:10am

Thu Aug 11, 1:10am

Thu Aug 11, 12:10am

Wed Aug 10, 11:10pm

Wed Aug 10, 10:10pm

Wed Aug 10, 9:10pm

Wed Aug 10, 8:10pm

Wed Aug 10, 7:10pm

Meta data:

ID: ba4785eb-b50e-405e-8e34-b0fb5cc016ac
Link: https://api.weather.gov/products/ba4785eb-b50e-405e-8e34-b0fb5cc016ac